Egmondgracht — PDWG — position and weather

sailwx.info

Track history (hours):
 
Tides and Currents Weather Stations Pressure Air Temp Water Temp Dewpoint Dewpoint Depression Visibility Wind Speed Wind Dir Waves Ship Positions

Egmondgracht

Last reported at 2014-Nov-27 00:31 UTC. Time now 2014-Nov-27 02:45 UTC.
Position N 42°07' E 010°16'.

Length 136 m; beam 19 m; draft 9 m.

Type: Cargo ship. MMSI: 245716000.

Date/timePositionNaut miles runAvg speedWind from/ knotsBaromVisibWave heightAir tempDewpointWater temp
2014-Nov-27 00:31N 42°07' E 010°16'15313.8
2014-Nov-26 13:24N 40°29' E 012°53'185 4.3
2014-Nov-24 18:31N 38°17' E 015°41'8 0.2
2014-Nov-23 07:31N 38°25' E 015°37'8 8.7
2014-Nov-23 06:33N 38°23' E 015°27'5510.1
2014-Nov-23 01:04N 38°22' E 014°16'510.0
2014-Nov-23 00:33N 38°23' E 014°09'1010.4
2014-Nov-22 23:33N 38°23' E 013°56'1110.7
2014-Nov-22 22:33N 38°24' E 013°43'1110.7
2014-Nov-22 21:33N 38°25' E 013°29'1110.6
2014-Nov-22 20:33N 38°25' E 013°15'1010.3
2014-Nov-22 19:33N 38°24' E 013°02'1010.2
2014-Nov-22 18:33N 38°22' E 012°49'1010.0
2014-Nov-22 17:32N 38°21' E 012°37'14610.2
2014-Nov-22 03:14N 38°02' E 009°32'4310.5
2014-Nov-21 23:06N 37°54' E 008°38'610.0
2014-Nov-21 22:32N 37°53' E 008°31'1410.0
2014-Nov-21 21:11N 37°51' E 008°14'610.2
2014-Nov-21 20:33N 37°50' E 008°06'1010.0
2014-Nov-21 19:33N 37°48' E 007°54'1110.3
2014-Nov-21 18:28N 37°46' E 007°40'1510.9
2014-Nov-21 17:06N 37°43' E 007°22'810.9
2014-Nov-21 16:22N 37°42' E 007°12'1110.8
2014-Nov-21 15:21N 37°40' E 006°58'1410.8
2014-Nov-21 14:04N 37°38' E 006°41'29911.1
2014-Nov-20 11:10N 36°40' E 000°33'1112.1
2014-Nov-20 10:16N 36°38' E 000°19'811.8
2014-Nov-20 09:33N 36°36' E 000°09'1311.6
2014-Nov-20 08:27N 36°34' W 000°07'24611.6
2014-Nov-19 11:18N 36°01' W 005°09'1013.1
2014-Nov-19 10:33N 35°59' W 005°21'  
Track history (hours):
 
Tides and Currents Weather Stations Pressure Air Temp Water Temp Dewpoint Dewpoint Depression Visibility Wind Speed Wind Dir Waves Ship Positions

Egmondgracht

Last reported at 2014-Nov-27 00:31 UTC. Time now 2014-Nov-27 02:45 UTC.
Position N 42°07' E 010°16'.

Length 136 m; beam 19 m; draft 9 m.

Type: Cargo ship. MMSI: 245716000.

Date/timePositionNaut miles runAvg speedWind from/ knotsBaromVisibWave heightAir tempDewpointWater temp
2014-Nov-27 00:31N 42°07' E 010°16'15313.8
2014-Nov-26 13:24N 40°29' E 012°53'185 4.3
2014-Nov-24 18:31N 38°17' E 015°41'8 0.2
2014-Nov-23 07:31N 38°25' E 015°37'8 8.7
2014-Nov-23 06:33N 38°23' E 015°27'5510.1
2014-Nov-23 01:04N 38°22' E 014°16'510.0
2014-Nov-23 00:33N 38°23' E 014°09'1010.4
2014-Nov-22 23:33N 38°23' E 013°56'1110.7
2014-Nov-22 22:33N 38°24' E 013°43'1110.7
2014-Nov-22 21:33N 38°25' E 013°29'1110.6
2014-Nov-22 20:33N 38°25' E 013°15'1010.3
2014-Nov-22 19:33N 38°24' E 013°02'1010.2
2014-Nov-22 18:33N 38°22' E 012°49'1010.0
2014-Nov-22 17:32N 38°21' E 012°37'14610.2
2014-Nov-22 03:14N 38°02' E 009°32'4310.5
2014-Nov-21 23:06N 37°54' E 008°38'610.0
2014-Nov-21 22:32N 37°53' E 008°31'1410.0
2014-Nov-21 21:11N 37°51' E 008°14'610.2
2014-Nov-21 20:33N 37°50' E 008°06'1010.0
2014-Nov-21 19:33N 37°48' E 007°54'1110.3
2014-Nov-21 18:28N 37°46' E 007°40'1510.9
2014-Nov-21 17:06N 37°43' E 007°22'810.9
2014-Nov-21 16:22N 37°42' E 007°12'1110.8
2014-Nov-21 15:21N 37°40' E 006°58'1410.8
2014-Nov-21 14:04N 37°38' E 006°41'29911.1
2014-Nov-20 11:10N 36°40' E 000°33'1112.1
2014-Nov-20 10:16N 36°38' E 000°19'811.8
2014-Nov-20 09:33N 36°36' E 000°09'1311.6
2014-Nov-20 08:27N 36°34' W 000°07'24611.6
2014-Nov-19 11:18N 36°01' W 005°09'1013.1
2014-Nov-19 10:33N 35°59' W 005°21'  

Dump ship's entire track history